Regional Weather Roundup
Issued by NWS

Home | Current Version | Previous Version | Text Only | Print | Product List | Glossary Off
Versions: 1 2 3 4 5 6 7 8 9 10 11 12 13 14 15 16 17 18 19 20 21 22 23 24 25 26 27 28 29 30 31 32 33 34 35 36 37 38 39 40 41 42 43 44 45 46 47 48 49 50

000
ASUS43 KLOT 010108
RWRIL

ILLINOIS REGIONAL WEATHER ROUNDUP
NATIONAL WEATHER SERVICE CHICAGO/ROMEOVILLE IL
800 PM CDT SAT APR 30 2016

NOTE: "FAIR" INDICATES FEW OR NO CLOUDS BELOW 12,000 FEET WITH NO
SIGNIFICANT WEATHER AND/OR OBSTRUCTIONS TO VISIBILITY.

* THESE STATIONS ARE NOT UNDER NWS QUALITY CONTROL. THEY ALSO MAY NOT
  REPORT WEATHER SUCH AS PRECIPITATION OR FOG.

ILZ001-002-007-009-015-016-024-010200-
NORTHWEST ILLINOIS

CITY           SKY/WX    TMP DP  RH WIND       PRES   REMARKS
MOLINE         CLOUDY    47  44  90 E16       29.88R FOG
STERLING*      LGT RAIN  45  45 100 E18G26    29.90F FOG
SAVANNA*       DRIZZLE   45  43  93 NE17G23   29.91F
$$

ILZ003-004-008-010-011-017-018-010200-
NORTH CENTRAL ILLINOIS

CITY           SKY/WX    TMP DP  RH WIND       PRES   REMARKS
ROCKFORD       LGT RAIN  45  42  89 NE20G26   29.96R FOG
FREEPORT*      LGT RAIN  43  41  94 NE17G25   29.96R
ROCHELLE*      CLOUDY    44  43  95 NE17      29.92R FOG
DE KALB*       LGT RAIN  44  43  96 E21       29.91S
$$

ILZ005-006-012>014-019>023-010200-
NORTHEAST ILLINOIS

CITY           SKY/WX    TMP DP  RH WIND       PRES   REMARKS
CHICAGO-OHARE  LGT RAIN  45  43  93 NE15      29.92S FOG
CHICAGO-MIDWAY LGT RAIN  47  43  86 NE16      29.91S FOG
AURORA         CLOUDY    46  44  93 NE22G29   29.90R FOG
LANSING*       DRIZZLE   47  46  98 NE8       29.90R
JOLIET*        DRIZZLE   47  46  96 NE10G22   29.89S
WAUKEGAN       CLOUDY    44  42  93 NE13G21   29.95R
DUPAGE AIRPORT LGT RAIN  45  42  89 NE14G25   29.91R FOG
KANKAKEE*      CLOUDY    49  47  96 NE9       29.87R FOG
WHEELING       LGT RAIN  44  43  96 NE14G23   29.95S FOG
MORRIS*        DRIZZLE   47  46  95 NE10G16   29.87S
ROMEOVILLE*    DRIZZLE   46  43  92 E16       29.89S
NORTHERLY ISL    N/A     45  43  93 NE16        N/A
NORTHERLY ISL    N/A     45  43  93 NE16        N/A
$$

LMZ740>746-010200-
SOUTHERN LAKE MICHIGAN

STATION/POSITION SKY/WX   TEMP    WIND        PRES    VSBY  WAVE
                          AIR SEA DIR/SP/G                  HT/PER
                          (F)     (DEG/KT/KT) (MB)    (MI)  (FT/S)
SOUTHERN BUOY              42 40   30/ 10/ 12 1015.8R         1/ 3
HARRISON CRIB              45      50/ 24/ 27   N/A
BURNHAM HARBOR             45      30/ 14/ 20   N/A
CALUMET HARBOR             45                 1012.5
BURNS HARBOR               49      50/ 14/ 15 1012.9S
MICHIGAN CITY              48      50/ 11/ 14   N/A
ST. JOSEPH                 48 47                N/A           2/ 3
$$

ILZ025>027-034>036-040-047-049-050-058-095>099-010200-
WEST-CENTRAL ILLINOIS

CITY           SKY/WX    TMP DP  RH WIND       PRES   REMARKS
QUINCY         HVY RAIN  64  62  93 NE8       29.78R FOG
GALESBURG*     CLOUDY    48  47  97 NE15G24   29.84R FOG
MACOMB*        CLOUDY    55  55 100 NE13      29.83R FOG
JACKSONVILLE*  MOCLDY    64  61  91 E3        29.77S
PITTSFIELD*    MOCLDY    67  63  86 N3        29.78R
$$

ILZ028>032-037-038-041>044-048-051>054-059>061-010200-
CENTRAL ILLINOIS

CITY           SKY/WX    TMP DP  RH WIND       PRES   REMARKS
PONTIAC        CLOUDY    51  51 100 NE15      29.85R
BLOOMINGTON    CLOUDY    56  56 100 NE9       29.82S FOG
DECATUR        FOG       60  59  96 CALM      29.82R VSB 1/4
PEORIA         CLOUDY    52  50  93 NE13      29.83R
LACON*         DRIZZLE   49  47  95 NE9       29.85R
LINCOLN*       MOCLDY    63  62  99 S3        29.79R FOG
SPRINGFIELD    PTCLDY    64  62  93 SE6       29.78R
TAYLORVILLE    PTCLDY    63  63 100 CALM      29.81R
$$

ILZ033-039-045-046-055>057-062-063-010200-
EAST-CENTRAL ILLINOIS

CITY           SKY/WX    TMP DP  RH WIND       PRES   REMARKS
CHAMPAIGN      CLOUDY    61  61 100 E3        29.81R FOG
RANTOUL*       CLOUDY    60  60  99 SE3       29.81R FOG
MATTOON        CLOUDY    65  61  87 S5        29.80R
$$

ILZ079-100>102-010200-
SOUTHWEST ILLINOIS

CITY           SKY/WX    TMP DP  RH WIND       PRES   REMARKS
ALTON          TSTM      64  57  77 NW6G20    29.80R
BELLEVILLE     CLOUDY    68  67  96 E5        29.79R
CAHOKIA*       CLOUDY    69  54  58 N9G29     29.79R THUNDER
SPARTA*        CLEAR     67  62  82 SE3       29.80R
$$

ILZ064>066-069>071-074>076-080>082-084>086-088>090-092>094-010200-
SOUTH-CENTRAL ILLINOIS

CITY           SKY/WX    TMP DP  RH WIND       PRES   REMARKS
CARBONDALE     MOCLDY    69  60  73 S6        29.81R
CAIRO*         CLEAR     69  64  85 S5        29.82S
EFFINGHAM*     CLOUDY    67  66  96 CALM      29.82R
MARION         CLEAR     68  61  77 S5        29.82R
MT. VERNON     CLOUDY    68  59  73 S7        29.82R
CENTRALIA*     MOCLDY    68  64  85 CALM      29.80R
SALEM*         CLOUDY    70  62  75 S3        29.80R
METROPOLIS*    MOCLDY    70  65  86 S5        29.84R
$$

ILZ067-068-072-073-078-083-087-091-010200-
SOUTHEAST ILLINOIS

CITY           SKY/WX    TMP DP  RH WIND       PRES   REMARKS
LAWRENCEVILLE  CLOUDY    66  64  93 S12       29.83R
FLORA*         CLOUDY    69  64  82 S8        29.81S
FAIRFIELD*     CLOUDY    68  64  85 SE3       29.81S
HARRISBURG*    CLOUDY    67  65  91 SE8       29.83R
ROBINSON*      CLOUDY    64  62  93 S7        29.84R
CARMI*         CLOUDY    67  64  93 SE7       29.82S
$$

ABBREVIATIONS USED IN REMARKS
   TC - TEMPERATURE IN CELSIUS
  WCI - WIND CHILL INDEX
   HX - HEAT INDEX
  VSB - VISIBILITY
$$





USA.gov is the U.S. government's official web portal to all federal, state and local government web resources and services.